sat.trackr.live / text

‹ back to catalog

ONEWEB-0606

NORAD 54670 · 2022-166AE

PAYLOAD ACTIVE UNKNOWN

§ Identity

Operator
Country
UK
Launch date
2022-12-08
Launch site
AFETR
Launch vehicle
Mass (kg)
RCS (m²)

Purposes: comms

External: N2YO · Heavens-Above · Gunter

§ Orbital elements

Epoch: 2026-05-24T23:55:16.525056Z

Period
108.94 min
Inclination
87.9251°
Eccentricity
0.0001821
Mean motion
13.21825684 rev/d
Perigee alt
1,176.4 km
Apogee alt
1,179.1 km
Semi-major
7,555.9 km
B*
1.4494e-4
RAAN
248.6137°
Arg perigee
102.7840°
Mean anomaly
257.3497°
Rev number
16,850

§ Raw data

ONEWEB-06061 54670U 22166AE  26144.99671904  .00000073  00000+0  14494-3 0  99952 54670  87.9251 248.6137 0001821 102.7840 257.3497 13.21825684168508

JSON: /api/v1/satellites/54670 · /tle

For live sub-satellite position, see the globe view (requires WebGL).

§ Visibility from observer

Set your observer location to see the next 7 days of passes ≥ 10°. The values pass through the URL so the page stays shareable.

No JS? Fill the form by hand. The geolocation button needs JavaScript.